Regional Weather Roundup
Issued by NWS

Home | Current Version | Previous Version | Graphics & Text | Print | Product List | Glossary On
Versions: 1 2 3 4 5 6 7 8 9 10 11 12 13 14 15 16 17 18 19 20 21 22 23 24 25 26 27 28 29 30 31 32 33 34 35 36 37 38 39 40 41 42 43 44 45 46 47 48 49 50
000
ASUS43 KLMK 200810
RWRKY
KENTUCKY REGIONAL WEATHER ROUNDUP
NATIONAL WEATHER SERVICE LOUISVILLE KY
400 AM EDT SUN AUG 20 2017

NOTE "FAIR" INDICATES FEW OR NO CLOUDS BELOW 12,000 FEET
WITH NO SIGNIFICANT WEATHER AND/OR OBSTRUCTIONS TO VISIBILITY.

KYZ001>023-026-027-061>063-070>075-200900-
WESTERN AND SOUTH CENTRAL KENTUCKY

CITY           SKY/WX    TMP DP  RH WIND       PRES   REMARKS
PADUCAH        CLEAR     72  68  87 CALM      29.98S
HENDERSON      PTCLDY    67  67 100 CALM      29.99S
OWENSBORO      CLEAR     71  69  93 CALM      30.00S
HOPKINSVILLE   CLEAR     70  70 100 CALM      30.00S
BOWLING GREEN  CLEAR     71  71 100 CALM      30.02R
GLASGOW        CLEAR    N/A N/A N/A CALM      30.03S
$$

KYZ024-025-028>034-038-045-046-053-200900-
NORTH CENTRAL KENTUCKY

CITY           SKY/WX    TMP DP  RH WIND       PRES   REMARKS
LOUISVILLE/SDF PTCLDY    74  70  87 SE3       30.01R
LOUISVILLE/LOU CLEAR     73  70  90 CALM      30.02R
FORT KNOX      CLEAR     69  69 100 CALM      30.01R
$$

KYZ035>037-039>044-047>052-055>060-089>105-200900-
NORTHEAST KENTUCKY

CITY           SKY/WX    TMP DP  RH WIND       PRES   REMARKS
LEXINGTON      CLEAR     69  65  86 S6        30.04S
COVINGTON      CLOUDY    73  70  90 N3        30.03S
FRANKFORT      CLEAR     68  65  90 CALM      30.02S
$$

KYZ054-064>069-076>088-106>120-200900-
SOUTHEAST KENTUCKY

CITY           SKY/WX    TMP DP  RH WIND       PRES   REMARKS
JACKSON        CLEAR     69  67  93 CALM      30.07S
LONDON         CLEAR     66  65  96 CALM      30.07S FOG
SOMERSET       CLEAR     63  63 100 CALM      30.07R
MIDDLESBORO    CLOUDY    65  65 100 CALM      30.09S
MONTICELLO     SUNNY     66  65  96 W10       30.07S
$$





USA.gov is the U.S. government's official web portal to all federal, state and local government web resources and services.